Abilene Dyess, TX

4:42 AM CDT on July 26, 2017 (GMT -0500)
Dyess Air Force Base

Weather History for KDYS - November, 2012

Change the Weather History Date:

Wednesday, November 28, 2012

  Actual Average Record
Temperature  
Mean Temperature 52 °F -  
Max Temperature 70 °F 60 °F 80 °F (2006)
Min Temperature 35 °F 40 °F 23 °F (2001)
Degree Days  
Heating Degree Days 12    
Growing Degree Days 2 (Base 50)    
Moisture  
Dew Point 37 °F    
Average Humidity 56    
Maximum Humidity 77    
Minimum Humidity 36    
Precipitation  
Precipitation 0.00 in - - ()
Sea Level Pressure  
Sea Level Pressure 30.25 in    
Wind  
Wind Speed 7 mph (SSE)    
Max Wind Speed 18 mph    
Max Gust Speed -    
Visibility 10 miles    
Events      
Averages and records for this station are not official NWS values.
T = Trace of Precipitation, MM = Missing Value Source: NWS Daily Summary

Daily Weather History Graph

Daily Weather History Graph

Search for Another Location

Airport or City:

Trip Planner

Search our weather history database for the weather conditions in past years. The results will help you decide how hot, cold, wet, or windy it might be!

Date:

Astronomy

Nov. 28, 2012 Rise Set
Actual Time 7:20 AM CST 5:34 PM CST
Civil Twilight 6:54 AM CST 6:00 PM CST
Nautical Twilight 6:23 AM CST 6:31 PM CST
Astronomical Twilight 5:54 AM CST 7:00 PM CST
Moon 5:50 PM CST (11/28) 7:19 AM CST (11/28)
Length of Visible Light 11h 06m
Length of Day
10h 13m
Full, 100% of the Moon is Illuminated
Nov 28
Full
Dec 6
Last Quarter
Dec 13
New
Dec 19
First Quarter
Dec 28
Full

Hourly Weather History & Observations

Time (CST) Temp. Windchill Dew Point Humidity Pressure Visibility Wind Dir Wind Speed Gust Speed Precip Events Conditions
12:55 AM 36.0 °F 33.3 °F 27.9 °F 72% 30.31 in 10.0 mi SSE 3.5 mph - N/A   Clear
1:55 AM 39.4 °F 36.1 °F 27.9 °F 63% 30.29 in 10.0 mi SSW 4.6 mph - N/A   Clear
2:55 AM 35.4 °F 32.6 °F 26.8 °F 71% 30.29 in 10.0 mi South 3.5 mph - N/A   Clear
3:55 AM 38.5 °F - 28.9 °F 69% 30.29 in 10.0 mi Calm Calm - N/A   Clear
4:55 AM 39.2 °F 35.0 °F 30.4 °F 71% 30.29 in 10.0 mi East 5.8 mph - N/A   Clear
5:55 AM 40.3 °F 38.2 °F 30.7 °F 69% 30.30 in 10.0 mi ESE 3.5 mph - N/A   Clear
6:55 AM 36.3 °F 33.7 °F 29.7 °F 77% 30.32 in 10.0 mi ESE 3.5 mph - N/A   Clear
7:55 AM 41.5 °F 37.1 °F 32.9 °F 71% 30.34 in 10.0 mi SSE 6.9 mph - N/A   Clear
8:55 AM 49.1 °F - 34.0 °F 56% 30.33 in 10.0 mi SSE 10.4 mph - N/A   Clear
9:55 AM 54.9 °F - 35.4 °F 48% 30.35 in 10.0 mi SE 11.5 mph - N/A   Clear
10:55 AM 62.4 °F - 36.1 °F 38% 30.32 in 10.0 mi South 12.7 mph - N/A   Clear
11:55 AM 64.8 °F - 38.3 °F 38% 30.30 in 10.0 mi South 11.5 mph - N/A   Clear
12:55 PM 68.5 °F - 40.6 °F 36% 30.25 in 10.0 mi South 10.4 mph - N/A   Clear
1:55 PM 69.4 °F - 41.4 °F 36% 30.21 in 10.0 mi SSW 15.0 mph - N/A   Clear
2:55 PM 70.0 °F - 42.3 °F 37% 30.19 in 10.0 mi SSE 12.7 mph - N/A   Clear
3:55 PM 70.0 °F - 42.1 °F 36% 30.18 in 10.0 mi South 18.4 mph - N/A   Clear
4:55 PM 68.4 °F - 42.3 °F 39% 30.19 in 10.0 mi South 10.4 mph - N/A   Clear
5:55 PM 59.0 °F - 41.5 °F 52% 30.19 in 10.0 mi South 8.1 mph - N/A   Clear
6:55 PM 58.8 °F - 42.1 °F 54% 30.20 in 10.0 mi SSE 11.5 mph - N/A   Clear
7:55 PM 54.0 °F - 41.0 °F 62% 30.21 in 10.0 mi South 6.9 mph - N/A   Clear
8:55 PM 55.8 °F - 41.4 °F 58% 30.20 in 10.0 mi South 12.7 mph - N/A   Clear
9:55 PM 53.1 °F - 41.5 °F 65% 30.19 in 10.0 mi SSE 10.4 mph - N/A   Clear
10:55 PM 52.7 °F - 41.4 °F 65% 30.18 in 10.0 mi South 13.8 mph - N/A   Clear
11:55 PM 49.8 °F - 41.2 °F 72% 30.18 in 10.0 mi SSE 11.5 mph - N/A   Clear